EW7114 Weather Reports


time (UTC)temp
F
wind
direction
speed
knots
gust
knots
rain 1hr
in
rain 24hr
in
rain mn
in
humidity
%
barometer
mb
20260901191044 75 170 15.6 21.7 0.00 0.01 0.00 49 1008.2
20260901190543 75 159 11.3 20.9 0.00 0.01 0.00 50 1008.1
20260901190045 74 162 15.6 20.9 0.00 0.01 0.00 50 1008.2
20260901185541 74 153 14.8 20.9 0.00 0.01 0.00 50 1008.2
20260901185039 74 141 14.8 20.9 0.00 0.01 0.00 50 1008.2
20260901184545 74 122 15.6 24.3 0.00 0.01 0.00 50 1008.2
20260901184036 74 145 17.4 27.8 0.00 0.01 0.00 50 1008.3
20260901183534 74 135 14.8 27.8 0.00 0.01 0.00 50 1008.2
20260901183035 74 124 15.6 21.7 0.00 0.01 0.00 50 1008.2
20260901182531 74 134 13.9 20.9 0.00 0.01 0.00 50 1008.2
20260901182031 74 126 13.0 20.9 0.00 0.01 0.00 50 1008.3
20260901181533 74 119 16.5 20.9 0.00 0.01 0.00 50 1008.3
20260901181026 73 162 12.2 20.9 0.00 0.01 0.00 50 1008.6
20260901180525 73 126 16.5 22.6 0.00 0.01 0.00 50 1008.6
20260901180024 73 133 14.8 22.6 0.00 0.01 0.00 50 1008.7
20260901175522 73 138 15.6 21.7 0.00 0.01 0.00 50 1008.8
20260901175021 73 125 13.9 21.7 0.00 0.01 0.00 49 1008.8
20260901174519 72 132 14.8 21.7 0.00 0.01 0.00 49 1008.8
20260901174018 72 104 13.9 21.7 0.00 0.01 0.00 48 1008.9
20260901173520 71 113 9.6 16.5 0.00 0.01 0.00 48 1009.0
20260901173015 72 115 11.3 18.2 0.00 0.01 0.00 49 1009.2
20260901172515 72 122 11.3 18.2 0.00 0.01 0.00 48 1009.1
20260901172012 71 133 13.0 16.5 0.00 0.01 0.00 47 1009.1
20260901171512 71 111 11.3 16.5 0.00 0.01 0.00 46 1009.2
20260901171009 70 92 9.6 13.9 0.00 0.01 0.00 44 1009.3
20260901170507 70 113 8.7 13.0 0.00 0.01 0.00 45 1009.3
20260901170007 69 132 8.7 16.5 0.00 0.01 0.00 46 1009.5
20260901165504 69 125 10.4 16.5 0.00 0.01 0.00 46 1009.7
20260901165005 69 137 9.6 16.5 0.00 0.01 0.00 44 1009.7
20260901164502 69 124 7.8 16.5 0.00 0.01 0.00 46 1009.7
20260901164100 70 165 6.1 13.9 0.00 0.01 0.00 46 1009.7
20260901163559 70 135 8.7 14.8 0.00 0.01 0.00 47 1009.7
20260901163057 70 117 8.7 14.8 0.00 0.01 0.00 47 1009.7
20260901162558 70 143 8.7 13.0 0.00 0.01 0.00 46 1009.8
20260901162053 70 154 9.6 14.8 0.00 0.01 0.00 45 1010.0
20260901161554 69 167 9.6 14.8 0.00 0.01 0.00 45 1010.0
20260901161050 69 154 9.6 14.8 0.00 0.01 0.00 45 1010.1
20260901160549 69 137 8.7 13.0 0.00 0.01 0.00 44 1010.2
20260901160048 68 144 8.7 13.0 0.00 0.01 0.00 41 1010.3
20260901155547 67 157 7.0 13.0 0.00 0.01 0.00 39 1010.4
20260901155045 67 185 7.8 13.0 0.00 0.01 0.00 36 1010.5
20260901154544 67 178 7.8 13.0 0.00 0.01 0.00 30 1010.6
20260901154042 67 191 7.8 13.0 0.00 0.01 0.00 26 1010.6
20260901153545 67 193 8.7 12.2 0.00 0.01 0.00 25 1010.6
20260901153042 66 191 7.0 11.3 0.00 0.01 0.00 13 1010.8
20260901152537 65 174 7.8 11.3 0.00 0.01 0.00 9 1010.8
20260901152036 65 153 7.8 11.3 0.00 0.01 0.00 2 1010.9
20260901151535 64 199 7.8 11.3 0.00 0.01 0.00 1 1010.9
20260901151035 64 209 7.8 11.3 0.00 0.01 0.00 1 1011.0
20260901150531 63 199 8.7 11.3 0.00 0.01 0.00 1 1011.0
20260901150031 63 176 7.8 11.3 0.00 0.01 0.00 1 1011.1
20260901145530 63 212 7.8 11.3 0.00 0.01 0.00 1 1011.1
20260901145028 62 185 7.0 12.2 0.00 0.01 0.00 1 1011.1
20260901144529 62 203 6.1 11.3 0.00 0.01 0.00 1 1011.1
20260901144024 62 199 7.8 11.3 0.00 0.01 0.00 1 1011.1
20260901143523 61 207 7.0 10.4 0.00 0.01 0.00 1 1011.1
20260901143022 61 197 7.8 10.4 0.00 0.01 0.00 1 1011.0
20260901142521 60 197 7.8 12.2 0.00 0.01 0.00 1 1011.1
20260901142018 60 195 9.6 12.2 0.00 0.01 0.00 1 1011.1
20260901141531 60 200 8.7 11.3 0.00 0.01 0.00 1 1011.1
20260901141016 59 202 7.8 10.4 0.00 0.01 0.00 1 1011.0
20260901140514 59 188 7.0 10.4 0.00 0.01 0.00 1 1011.0
20260901140012 58 200 7.0 10.4 0.00 0.01 0.00 1 1011.0
20260901135511 58 199 7.8 11.3 0.00 0.01 0.00 1 1011.0
20260901135010 57 208 7.0 10.4 0.00 0.01 0.00 1 1010.9
20260901134511 56 198 7.8 10.4 0.00 0.01 0.00 1 1010.8
20260901134012 55 193 7.8 9.6 0.00 0.01 0.00 1 1010.7
20260901133506 55 211 7.8 9.6 0.00 0.01 0.00 1 1010.7
20260901133005 54 206 7.8 9.6 0.00 0.01 0.00 1 1010.7
20260901132504 54 207 6.1 8.7 0.00 0.01 0.00 1 1010.7
20260901132004 53 204 5.2 7.0 0.00 0.01 0.00 1 1010.7
20260901131604 53 201 4.3 6.1 0.00 0.01 0.00 1 1010.7
20260901131058 53 215 4.3 7.0 0.00 0.01 0.00 1 1010.7
20260901130557 53 209 5.2 7.8 0.00 0.01 0.00 1 1010.6
20260901130055 53 209 5.2 7.8 0.00 0.01 0.00 1 1010.6
20260901125554 53 207 4.3 7.0 0.00 0.01 0.00 1 1010.5
20260901125053 53 207 5.2 7.0 0.00 0.01 0.00 1 1010.5
20260901124555 53 187 4.3 7.0 0.00 0.01 0.00 1 1010.5
20260901124052 53 194 5.2 7.8 0.00 0.01 0.00 1 1010.5
20260901123548 53 195 6.1 7.8 0.00 0.01 0.00 1 1010.5
20260901123046 54 209 5.2 8.7 0.00 0.01 0.00 1 1010.5
20260901122545 54 199 6.1 9.6 0.00 0.01 0.00 1 1010.5
20260901122047 54 205 7.0 8.7 0.00 0.01 0.00 1 1010.5
20260901121545 54 199 7.0 8.7 0.00 0.01 0.00 1 1010.5
20260901121040 54 194 6.1 8.7 0.00 0.01 0.00 1 1010.4
20260901120539 54 205 7.0 9.6 0.00 0.01 0.00 1 1010.5
20260901120037 54 184 6.1 9.6 0.00 0.01 0.00 1 1010.5
20260901115536 54 185 6.1 8.7 0.00 0.01 0.00 1 1010.5
20260901115035 54 196 5.2 7.8 0.00 0.01 0.00 1 1010.6
20260901114550 54 194 6.1 7.8 0.00 0.01 0.00 1 1010.5
20260901114031 54 205 6.1 8.7 0.00 0.01 0.00 1 1010.5
20260901113530 53 195 6.1 7.8 0.00 0.01 0.00 1 1010.4
20260901113028 53 195 5.2 7.8 0.00 0.01 0.00 1 1010.4
20260901112527 54 204 5.2 8.7 0.00 0.01 0.00 1 1010.3
20260901112025 54 213 7.0 8.7 0.00 0.01 0.00 1 1010.2
20260901111524 53 200 6.1 8.7 0.00 0.01 0.00 1 1010.3
20260901111023 53 215 5.2 7.8 0.00 0.01 0.00 1 1010.2
20260901110521 53 217 6.1 9.6 0.00 0.01 0.00 1 1010.2
20260901110021 53 214 7.0 9.6 0.00 0.01 0.00 1 1010.3
20260901105519 53 218 5.2 7.0 0.00 0.01 0.00 1 1010.3
20260901105016 53 209 5.2 7.8 0.00 0.01 0.00 1 1010.4
20260901104515 53 195 5.2 10.4 0.00 0.01 0.00 1 1010.4
20260901104014 53 205 6.1 7.8 0.00 0.01 0.00 1 1010.5
20260901103512 52 201 5.2 7.8 0.00 0.01 0.00 1 1010.5
20260901103011 52 199 5.2 7.8 0.00 0.01 0.00 1 1010.5
20260901102514 52 205 6.1 7.8 0.00 0.01 0.00 1 1010.6
20260901102008 52 203 4.3 6.1 0.00 0.01 0.00 1 1010.6
20260901101506 52 214 4.3 6.1 0.00 0.01 0.00 1 1010.5
20260901101005 52 211 5.2 6.1 0.00 0.01 0.00 1 1010.5
20260901100504 52 202 5.2 7.0 0.00 0.01 0.00 1 1010.6
20260901100001 52 199 4.3 7.0 0.00 0.01 0.00 1 1010.6
20260901095601 52 203 5.2 7.8 0.00 0.01 0.00 1 1010.6
20260901095059 52 198 6.1 7.8 0.00 0.01 0.00 1 1010.6
20260901094558 52 193 6.1 7.0 0.00 0.01 0.00 1 1010.7
20260901094059 52 192 5.2 7.0 0.00 0.01 0.00 1 1010.7
20260901093555 53 203 5.2 7.0 0.00 0.01 0.00 1 1010.7
20260901093053 53 205 5.2 7.0 0.00 0.01 0.00 1 1010.6
20260901092552 53 205 4.3 6.1 0.00 0.01 0.00 1 1010.6
20260901092050 53 205 4.3 5.2 0.00 0.01 0.00 1 1010.7
20260901091553 53 205 3.5 6.1 0.00 0.01 0.00 1 1010.7
20260901091049 54 205 4.3 7.0 0.00 0.01 0.00 1 1010.7
20260901090545 54 199 5.2 7.8 0.00 0.01 0.00 1 1010.7
20260901090044 54 207 5.2 7.8 0.00 0.01 0.00 1 1010.6
20260901085542 54 211 5.2 7.0 0.00 0.01 0.00 1 1010.6
20260901085041 54 208 5.2 7.8 0.00 0.01 0.00 1 1010.6
20260901084540 54 197 6.1 7.8 0.00 0.01 0.00 1 1010.5
20260901084039 54 197 3.5 7.8 0.00 0.01 0.00 1 1010.5
20260901083537 54 196 5.2 8.7 0.00 0.01 0.00 1 1010.6
20260901083036 54 199 6.1 8.7 0.00 0.01 0.00 1 1010.7
20260901082533 54 199 6.1 8.7 0.00 0.01 0.00 1 1010.7
20260901082032 54 204 5.2 8.7 0.00 0.01 0.00 1 1010.7
20260901081538 55 209 6.1 8.7 0.00 0.01 0.00 1 1010.8
20260901081029 54 202 7.0 8.7 0.00 0.01 0.00 1 1010.9
20260901080531 54 196 6.1 8.7 0.00 0.01 0.00 1 1010.9
20260901080516 54 197 6.1 8.7 0.00 0.01 0.00 1 1010.9
20260901080010 54 197 7.0 8.7 0.00 0.01 0.00 1 1010.8
20260901075508 54 195 7.0 8.7 0.00 0.01 0.00 1 1010.8
20260901075010 54 183 6.1 8.7 0.00 0.01 0.00 1 1010.8
20260901074505 54 202 6.1 8.7 0.00 0.01 0.00 1 1010.9
20260901074003 55 195 7.0 8.7 0.00 0.01 0.00 1 1011.0
20260901073502 55 214 7.0 9.6 0.00 0.01 0.00 1 1011.0
20260901073102 55 206 7.0 12.2 0.00 0.01 0.00 1 1010.9
20260901072559 55 220 7.8 12.2 0.00 0.01 0.00 1 1011.0
20260901072059 55 221 7.0 9.6 0.00 0.01 0.00 1 1011.0
20260901071557 55 205 7.8 10.4 0.00 0.01 0.00 1 1010.9
20260901071056 55 224 8.7 10.4 0.00 0.01 0.00 1 1010.9
20260901070554 55 212 8.7 11.3 0.00 0.01 0.00 1 1011.0
20260901070053 55 228 7.0 9.6 0.00 0.01 0.00 1 1010.9
20260901065550 55 209 7.0 9.6 0.00 0.01 0.00 1 1011.1
20260901065049 55 207 7.0 9.6 0.00 0.01 0.00 1 1011.0
20260901064548 55 204 7.0 9.6 0.00 0.01 0.00 1 1011.1
20260901064045 55 211 7.0 8.7 0.00 0.01 0.00 1 1011.1
20260901063544 56 210 6.1 8.7 0.00 0.01 0.00 1 1011.1
20260901063045 56 210 7.0 8.7 0.00 0.01 0.00 1 1011.1
20260901062545 56 207 5.2 7.8 0.00 0.01 0.00 1 1011.1
20260901062040 57 201 6.1 9.6 0.00 0.01 0.00 1 1011.0
20260901061539 57 199 6.1 9.6 0.00 0.01 0.00 1 1011.0
20260901061038 57 211 7.8 8.7 0.00 0.01 0.00 1 1011.0
20260901060535 57 189 6.1 8.7 0.00 0.01 0.00 1 1011.1
20260901060035 57 215 5.2 7.8 0.00 0.01 0.00 1 1011.2
20260901055534 57 202 6.1 9.6 0.00 0.01 0.01 1 1011.1
20260901055035 57 206 7.0 9.6 0.00 0.01 0.01 1 1011.2
20260901054535 57 203 6.1 9.6 0.00 0.01 0.01 1 1011.2
20260901054034 57 201 7.0 9.6 0.00 0.01 0.01 1 1011.2
20260901053534 57 213 7.0 9.6 0.00 0.01 0.01 1 1011.2
20260901053034 57 203 7.0 9.6 0.00 0.01 0.01 1 1011.2
20260901052533 58 198 7.0 10.4 0.00 0.01 0.01 1 1011.2
20260901052033 58 201 7.8 10.4 0.00 0.01 0.01 1 1011.1
20260901051535 58 196 7.8 10.4 0.00 0.01 0.01 1 1011.1
20260901051033 58 171 7.0 10.4 0.00 0.01 0.01 1 1011.2
20260901050529 58 176 7.0 9.6 0.00 0.01 0.01 1 1011.3
20260901050028 58 164 7.8 9.6 0.00 0.01 0.01 1 1011.3
20260901045527 58 180 7.0 10.4 0.00 0.01 0.01 1 1011.3
20260901045025 58 168 6.1 10.4 0.00 0.01 0.01 1 1011.4
20260901044527 59 174 4.3 8.7 0.00 0.01 0.01 1 1011.5
20260901044023 59 151 6.1 11.3 0.00 0.01 0.01 1 1011.4
20260901043521 59 157 7.8 12.2 0.00 0.01 0.01 1 1011.5
20260901043023 59 142 7.8 12.2 0.00 0.01 0.01 1 1011.6
20260901042518 58 130 7.0 10.4 0.00 0.01 0.01 1 1011.6
20260901042016 58 163 5.2 7.8 0.00 0.01 0.01 1 1011.6
20260901041516 58 180 4.3 8.7 0.00 0.01 0.01 1 1011.6
20260901041014 59 165 5.2 9.6 0.00 0.01 0.01 1 1011.6
20260901040513 59 179 7.0 13.0 0.00 0.01 0.01 1 1011.6
20260901040012 59 168 7.0 13.0 0.00 0.01 0.01 1 1011.6
20260901035509 59 149 9.6 15.6 0.00 0.01 0.01 1 1011.5
20260901035008 58 140 8.7 14.8 0.00 0.01 0.01 1 1011.5
20260901034515 58 157 5.2 7.8 0.00 0.01 0.01 1 1011.5
20260901034004 58 192 4.3 8.7 0.00 0.01 0.01 1 1011.7
20260901033503 58 203 5.2 13.0 0.00 0.01 0.01 1 1011.7
20260901033006 58 173 7.0 12.2 0.00 0.01 0.01 1 1011.6
20260901032601 58 195 8.7 12.2 0.00 0.01 0.01 1 1011.5
20260901032058 58 183 7.0 10.4 0.00 0.01 0.01 1 1011.4
20260901031557 58 207 8.7 12.2 0.00 0.01 0.01 1 1011.4
20260901031056 57 184 7.8 10.4 0.00 0.01 0.01 1 1011.3
20260901030555 58 175 7.0 11.3 0.00 0.01 0.01 1 1011.2
20260901030053 58 201 7.8 12.2 0.00 0.01 0.01 1 1011.2
20260901025551 58 193 9.6 13.0 0.00 0.01 0.01 1 1011.2
20260901025050 58 187 8.7 13.0 0.00 0.01 0.01 1 1011.1
20260901024548 58 176 9.6 13.0 0.00 0.01 0.01 1 1011.1
20260901024048 58 191 8.7 15.6 0.00 0.01 0.01 1 1011.0
20260901023545 59 203 9.6 15.6 0.00 0.01 0.01 1 1011.0
20260901023044 59 178 9.6 18.2 0.00 0.01 0.01 1 1010.9
20260901022542 59 189 12.2 19.1 0.00 0.01 0.01 1 1010.9
20260901022041 59 158 11.3 19.1 0.00 0.01 0.01 1 1010.8
20260901021539 60 186 13.0 20.0 0.00 0.01 0.01 1 1010.6
20260901021038 60 167 13.0 20.0 0.00 0.01 0.01 1 1010.5
20260901020536 61 176 11.3 18.2 0.00 0.01 0.01 6 1010.5
20260901020035 61 194 11.3 13.9 0.00 0.01 0.01 6 1010.4
20260901015532 61 209 10.4 15.6 0.00 0.01 0.01 9 1010.4
20260901015034 61 197 11.3 15.6 0.00 0.01 0.01 12 1010.4
20260901014530 61 181 8.7 13.9 0.00 0.01 0.01 19 1010.4
20260901014033 62 195 7.0 17.4 0.00 0.01 0.01 26 1010.3
20260901013528 62 171 7.0 17.4 0.00 0.01 0.01 27 1010.3
20260901013039 62 149 7.8 15.6 0.00 0.01 0.01 25 1010.3
20260901012525 62 189 9.6 15.6 0.00 0.01 0.01 23 1010.4
20260901012027 62 192 9.6 13.9 0.00 0.01 0.01 23 1010.3
20260901011533 62 202 7.8 12.2 0.00 0.01 0.01 24 1010.4
20260901011020 62 186 7.0 13.0 0.00 0.01 0.01 23 1010.4
20260901010520 62 144 9.6 14.8 0.00 0.01 0.01 22 1010.5
20260901010017 62 155 11.3 15.6 0.00 0.01 0.01 22 1010.5
20260901005514 62 147 11.3 15.6 0.00 0.01 0.01 20 1010.5
20260901005013 63 142 10.4 18.2 0.00 0.01 0.01 21 1010.7
20260901004512 63 114 13.9 18.2 0.00 0.01 0.01 23 1010.8
20260901004011 62 103 11.3 16.5 0.00 0.01 0.01 20 1010.8
20260901003509 62 97 11.3 16.5 0.00 0.01 0.01 14 1010.8
20260901003008 62 120 11.3 18.2 0.00 0.01 0.01 10 1010.7
20260901002506 62 116 10.4 16.5 0.00 0.01 0.01 6 1010.7
20260901002005 62 120 9.6 20.0 0.00 0.01 0.01 6 1010.5
20260901001503 62 98 14.8 20.0 0.00 0.01 0.01 11 1010.5
20260901001001 62 111 9.6 17.4 0.00 0.01 0.01 15 1010.4
20260901000600 62 113 12.2 18.2 0.00 0.01 0.01 16 1010.3
20260901000100 63 101 11.3 18.2 0.00 0.01 0.01 23 1010.0
20260831235600 63 100 10.4 21.7 0.00 0.01 0.01 30 1010.1
20260831235056 63 107 10.4 21.7 0.00 0.01 0.01 35 1010.0
20260831234557 64 113 13.0 27.8 0.00 0.01 0.01 37 1009.7
20260831234053 64 108 20.0 27.8 0.00 0.01 0.01 45 1009.4
20260831233550 65 113 15.6 30.4 0.01 0.01 0.01 49 1009.4
20260831233049 67 122 18.2 30.4 0.01 0.01 0.01 53 1009.0
20260831232547 67 116 19.1 30.4 0.01 0.01 0.01 52 1008.8
20260831232046 68 128 22.6 33.9 0.01 0.01 0.01 52 1008.6
20260831231546 67 140 23.5 33.9 0.01 0.01 0.01 52 1008.5
20260831231043 67 109 18.2 32.2 0.01 0.01 0.01 50 1008.5
20260831230543 67 119 24.3 32.2 0.01 0.01 0.01 53 1008.3
20260831230041 67 100 18.2 32.2 0.01 0.01 0.01 52 1008.3
20260831225538 68 106 22.6 32.2 0.01 0.01 0.01 52 1008.0
20260831225037 69 108 18.2 33.0 0.01 0.01 0.01 52 1007.7
20260831224536 68 126 22.6 33.0 0.01 0.01 0.01 52 1006.9
20260831224037 71 90 23.5 32.2 0.01 0.01 0.01 52 1006.9
20260831223534 72 111 9.6 13.9 0.00 0.00 0.00 51 1006.7
20260831223034 72 126 0.9 5.2 0.00 0.00 0.00 52 1006.5
20260831222534 72 78 1.7 5.2 0.00 0.00 0.00 52 1006.3
20260831222033 72 78 3.5 7.0 0.00 0.00 0.00 52 1006.2
20260831221532 72 59 2.6 7.0 0.00 0.00 0.00 51 1006.1
20260831221031 72 355 1.7 8.7 0.00 0.00 0.00 51 1006.1
20260831220531 72 259 6.1 8.7 0.00 0.00 0.00 52 1006.2
20260831220031 72 305 7.0 8.7 0.00 0.00 0.00 52 1006.0
20260831215530 73 242 1.7 7.0 0.00 0.00 0.00 52 1006.1
20260831215034 72 257 3.5 7.8 0.00 0.00 0.00 51 1006.2
20260831214528 73 28 3.5 9.6 0.00 0.00 0.00 52 1006.1
20260831214027 73 345 5.2 9.6 0.00 0.00 0.00 52 1006.1
20260831213530 72 311 7.0 10.4 0.00 0.00 0.00 52 1006.1
20260831213026 72 299 7.8 10.4 0.00 0.00 0.00 51 1006.1
20260831212523 72 312 3.5 7.8 0.00 0.00 0.00 51 1006.1
20260831212022 73 319 3.5 7.8 0.00 0.00 0.00 51 1006.1
20260831211521 73 281 3.5 8.7 0.00 0.00 0.00 52 1006.0
20260831211020 74 258 4.3 15.6 0.00 0.00 0.00 52 1006.0
20260831210517 76 286 11.3 15.6 0.00 0.00 0.00 50 1005.9
20260831210016 78 105 0.0 8.7 0.00 0.00 0.00 45 1006.0
20260831205514 80 360 4.3 11.3 0.00 0.00 0.00 44 1005.9
20260831205013 80 98 5.2 11.3 0.00 0.00 0.00 41 1005.7
20260831204511 80 119 5.2 11.3 0.00 0.00 0.00 40 1005.7
20260831204013 80 117 3.5 11.3 0.00 0.00 0.00 42 1005.7
20260831203509 80 138 5.2 10.4 0.00 0.00 0.00 42 1005.6
20260831203006 81 154 7.8 13.0 0.00 0.00 0.00 41 1005.7
20260831202505 81 99 7.8 13.9 0.00 0.00 0.00 41 1005.9
20260831202004 81 118 9.6 13.9 0.00 0.00 0.00 40 1005.9
20260831201507 81 139 5.2 9.6 0.00 0.00 0.00 40 1006.0
20260831201002 81 130 6.1 10.4 0.00 0.00 0.00 42 1006.0
20260831200600 81 130 3.5 13.0 0.00 0.00 0.00 42 1006.0
20260831200139 80 169 6.1 13.0 0.00 0.00 0.00 42 1006.1
20260831195557 81 110 3.5 11.3 0.00 0.00 0.00 40 1006.2
20260831195054 81 74 7.0 11.3 0.00 0.00 0.00 41 1006.3
20260831194559 81 149 7.0 13.9 0.00 0.00 0.00 41 1006.5
20260831194052 81 117 7.8 13.9 0.00 0.00 0.00 41 1006.6
20260831193550 81 101 7.0 11.3 0.00 0.00 0.00 40 1006.8
20260831193049 82 141 7.8 12.2 0.00 0.00 0.00 41 1006.9
20260831192549 82 147 8.7 12.2 0.00 0.00 0.00 42 1007.0
20260831192045 81 165 5.2 13.0 0.00 0.00 0.00 44 1007.0
20260831191546 80 181 7.8 11.3 0.00 0.00 0.00 45 1007.2